STARLINK-30542, 58041

Orbit data source: Space-Track

STARLINK-30542, 58041 is a payload satellite owned by SpaceX/Seattle (US) in LEO that was launched on Mon, 09 Oct 2023 UTC via an FALCON 9 launch vehicle from the Air Force Western Test Range (AFWTR). Payload-class satellites include a variety of spacecraft equipped with specific instruments for various scientific and technological missions. These include communications satellites like Starlink; space stations such as the ISS; scientific satellites like the Hubble; Earth observation satellites from companies like Planet Labs, Umbra, and HawkEye 360; GPS; miniature CubeSats for education and research; and military/defense satellites.

Loading next visibility...
Identifier
58041, 2023-156P
Orbit
LEO
Country
Flag of USUS
Related business
Manufacturer
SpaceX/Seattle
Mission
Operational Commercial Communications
Bus & Motor
STARLINK V2M, Unknown motor
Mass
730 kg wet, ~700 kg dry
Launch date (UTC)
2023-10-09 (3 years ago)
Launch vehicle
FALCON 9
Launch site
Air Force Western Test Range (AFWTR)
Object type
Payload
Rocket body
Debris
Shape & HBR
Box + 2 Pan, 17.7 m
Radar Cross Section
33.884 m², Large (>1 m²)

Expand to show TLE details & history
Last TLE update: 2 days ago

TLE from 2 days ago
0 STARLINK-30542
1 58041U 23156P   26171.12490313 -.00000959  00000-0 -20265-4 0  9999
2 58041  53.1620 322.4302 0001306  81.1741 278.9408 15.30195899151998
Epoch: 2026-06-20T02:59Z
TLE epoch observation values (Epoch: 2026-06-20T02:59:51.630Z)
Latitude
0.00001°
Longitude
9.12106°
Altitude
475.988 km
Speed
7.629 km/s
True Right ascension
21h 29m 43s
True Declination
0° 00' 00"
Sunlit
Object was in full shadow at epoch
Visualization orbit readout
Latitude
Unknown
Longitude
Unknown
Altitude
Unknown
Speed
Unknown
Apparent Right ascension
Unknown
Apparent Declination
Unknown
Sunlit
N/A
Visualization observer readout
Local Sidereal Time
21:40:23
Azimuth
Unknown
Elevation
Unknown
Doppler factor
Unknown
Orbital elements
Apogee altitude
476.379 km
Perigee altitude
474.588 km
Semi-major axis
6,853.62 km
Eccentricity
0.00013
Inclination
53.162°
RAAN
322.4302°
Arg. of periapsis
81.1741°
True anomaly
278.92602°
Mean anomaly
278.9408°
Eccentric anomaly
278.93341°
Mean motion
3.82528 °/min
Orbital period
94.11 mins
BSTAR
-0.000020265
Loading maneuver chart data...
Computing Atmospheric mass density...
Loading historical data...
Loading historical data...
Loading historical data...
Loading historical data...
Loading historical data...
Loading historical data...
Loading historical data...

Documentation

Showing up to 5 results
|